THOR ABLESTAR DEB, 538

Orbit data source: Space-Track

THOR ABLESTAR DEB, 538 is space debris in LEO originally from a launch on Thu, 29 Jun 1961 UTC launched from the Air Force Eastern Test Range (AFETR). Debris objects in space refer to the collection of defunct objects orbiting the Earth. Examples of debris include non-operational satellites, rocket bodies, and fragments generated from explosions, collisions, or faulty payload assembly.

Loading next visibility...
Identifier
538, 1961-015FX
Orbit
LEO
Country
Flag of USUS
Related business
Manufacturer
Unknown
Mission
Spacecraft
Bus & Motor
Unknown
Mass
Unknown
Launch date (UTC)
1961-06-29 (64 years ago)
Launch vehicle
Unknown
Launch site
Air Force Eastern Test Range (AFETR)
Object type
Payload
Rocket body
Debris
Shape & HBR
Unknown
Radar Cross Section
Small (<0.1 m²)

Expand to show TLE details & history
Last TLE update: 20 hours ago

TLE from 20 hours ago
0 THOR ABLESTAR DEB
1 00538U 61015FX  25258.20778204  .00007095  00000-0  14262-2 0  9999
2 00538  67.8065 327.1839 0008247 228.1224 131.9197 14.62058570323350
Epoch: 2025-09-15T04:59Z
TLE epoch observation values (Epoch: 2025-09-15T04:59:12.368Z)
Latitude
0.00003°
Longitude
-102.03336°
Altitude
692.655 km
Speed
7.508 km/s
True Right ascension
21h 48m 44s
True Declination
0° 00' 00"
Sunlit
Object was in full shadow at epoch
Visualization orbit readout
Latitude
Unknown
Longitude
Unknown
Altitude
Unknown
Speed
Unknown
Apparent Right ascension
Unknown
Apparent Declination
Unknown
Sunlit
N/A
Visualization observer readout
Local Sidereal Time
17:19:31
Azimuth
Unknown
Elevation
Unknown
Doppler factor
Unknown
Orbital elements
Apogee altitude
690.582 km
Perigee altitude
678.932 km
Semi-major axis
7,062.894 km
Eccentricity
0.00082
Inclination
67.8065°
RAAN
327.1839°
Arg. of periapsis
228.1224°
True anomaly
131.98997°
Mean anomaly
131.9197°
Eccentric anomaly
131.95484°
Mean motion
3.65653 °/min
Orbital period
98.45 mins
BSTAR
0.0014262
Loading maneuver chart data...
Computing Atmospheric mass density...

Documentation

Showing up to 5 results
|